Terug naar catalogus

CSTP-2.11

ActiefWetenschapSSO
NORAD 61744·PAYLOAD·🇷🇺 Russia

Gelanceerd Nov 4, 2024 vanaf Vostochny Cosmodrome

Loading…

Volgende Passages (komende 24 uur)

TLE

VersSource: Space-Track

Epoch: Sep 14, 2026, 14:11 UTC

1 61744U 24199K   26257.59156117  .00032005  00000-0  44159-3 0  9990
2 61744  97.2774 134.3976 0004574 322.7263  37.3675 15.57127352148257

Volg CSTP-2.11 in realtime met AllMySat

Download on the App Store